TITAN 3C TRANSTAGE DEB, 3373

Orbit data source: Space-Track

TITAN 3C TRANSTAGE DEB, 3373 is space debris in LEO originally from a launch on Fri, 15 Oct 1965 UTC launched from the Air Force Eastern Test Range (AFETR). Debris objects in space refer to the collection of defunct objects orbiting the Earth. Examples of debris include non-operational satellites, rocket bodies, and fragments generated from explosions, collisions, or faulty payload assembly.

Loading next visibility...
TITAN 3C TRANSTAGE DEB details
Identifier
3373, 1965-082ML
Orbit
LEO
Last TLE update1 day ago
Origin
Flag of USUSAF SSD (US)
ManufacturerUnknown
MissionSpacecraft
Bus & MotorUnknown
MassUnknown
Launch date (UTC)
1965-10-15 (59 years ago)
Launch vehicleUnknown
Launch site
Air Force Eastern Test Range (AFETR)
Object type
Payload
Rocket body
Debris
Shape & HBRUnknown
Radar Cross SectionSmall (<0.1 m²)

Expand to show TLE details & history

TLE from 1 day ago
0 TITAN 3C TRANSTAGE DEB
1 03373U 65082ML  24355.61781032  .00008020  00000-0  19079-2 0  9992
2 03373  30.9801  89.8790 0166646  63.4281 298.3314 14.44582879971855
Epoch: 2024-12-20T14:49Z
Definitive object data (Epoch: 2024-12-20T14:49:38.811Z)
Latitude-0.00001°
Longitude137.78653°
Altitude687.19 km
Speed7.544 km/s
True Right ascension05h 59m 30s
True Declination0° 00' 00"
Sunlit
Object was in full shadow at TLE epoch
Visualization TLE readout
Latitude-27.69258°
Longitude11.89216°
Altitude866.308 km
Speed7.359 km/s
Apparent Right ascension00h 11m 03s
Apparent Declination-43° 33' 31"
Sunlit
Object is in daylight
Visualization observer readout
Local Sidereal Time15:51:40
Azimuth113.843° SE
Elevation-49.443°
Doppler factor1
Orbital elements
Apogee altitude865.87 km
Perigee altitude628.391 km
Semi-major axis7,125.267 km
Eccentricity0.0166646
Inclination30.9801°
RAAN89.879°
Arg. of periapsis63.4281°
True anomaly296.63399°
Mean anomaly298.3314°
Eccentric anomaly297.48435°
Mean motion3.60862 °/min
BSTAR0.0019079
Orbital period99.76 mins
Loading maneuver chart data...

TITAN 3C TRANSTAGE DEB Visibility forecast

Observer location: undefined°, undefined

Span
Click to sort rows by Start time (UTC) header in descending order
Start Az.
Max El. time (UTC)
Max El. Az.
Max El.
End time (UTC)
End Az.
6 mins2024-12-22 10:12:08.873Z206.916° SW2024-12-22 10:15:08.873Z165.006° S17.53°2024-12-22 10:18:08.873Z122.451° SE
5 mins2024-12-22 11:58:08.873Z217.377° SW2024-12-22 12:00:08.873Z178.884° S24.026°2024-12-22 12:03:08.873Z128.602° SE
5 mins2024-12-22 13:43:08.873Z226.389° WSW2024-12-22 13:45:08.873Z193.43° SSW19.682°2024-12-22 13:48:08.873Z148.989° SSE
|